Home   Weather   Arequipa   Past weeks

Flag for Peru Past Weather in Arequipa, Arequipa, Peru — Yesterday and Last 2 Weeks

Now
50 °F

Clear.


Feels Like: 50 °F
Forecast: 49 / 68 °F
Wind: 2 mph from North

Location: Arequipa Airport

Current Time: Apr 25, 2017 at 3:45:47 am

Latest Report: Apr 25, 2017 at 3:00 am


Visibility: 10 mi

Pressure: 30.27 "Hg (22.81 "Hg at 2345m altitude)

Humidity: 67%

Dew Point: 39 °F

Location of ArequipaLocation

Past Weather in Arequipa — Graph

°F

Arequipa Temperature Yesterday

Maximum temperature yesterday: 70 °F (at 12:00 pm)
Minimum temperature yesterday: 52 °F (at 4:00 am)
Average temperature yesterday: 59 °F

High & Low Weather Summary for the Past Weeks

 TemperatureHumidityPressure
High73 °F (Apr 14, 11:00 am)94% (Apr 10, 8:00 pm)30.42 "Hg (Apr 10, 8:00 pm)
Low45 °F (Apr 20, 4:00 am)16% (Apr 20, 8:00 am)30.21 "Hg (Apr 13, 3:00 pm)
Average59 °F60%30.29 "Hg
* Reported Apr 10 2:00 am — Apr 25 2:00 am, Arequipa, Weather by CustomWeather, © 2017

Note: Actual official high and low records may vary slightly from our data, if they occured in-between our weather recording intervals... More about our weather records

Advertising

Arequipa Weather History for the Previous 24 Hours

Scroll right to see more
 ConditionsComfort  
Time TempWeatherWind HumidityBarometerVisibility
2:00 am
Tue, Apr 25
50 °FClear.6 mph67%30.27 "Hg10 mi
1:00 am52 °FClear.7 mph67%30.30 "Hg10 mi
12:00 am52 °FClear.5 mph67%30.30 "Hg10 mi
11:00 pm
Mon, Apr 24
52 °FClear.6 mph72%30.30 "Hg10 mi
10:00 pm55 °FClear.3 mph63%30.30 "Hg10 mi
9:00 pm55 °FClear.6 mph63%30.33 "Hg10 mi
8:00 pm54 °FClear.6 mph77%30.30 "Hg10 mi
7:00 pm55 °FClear.1 mph77%30.30 "Hg10 mi
6:00 pm59 °FClear.6 mph68%30.27 "Hg10 mi
5:00 pm61 °FScattered clouds.10 mph63%30.27 "HgN/A
4:00 pm64 °FScattered clouds.12 mph52%30.24 "HgN/A
3:00 pm68 °FScattered clouds.10 mph43%30.21 "HgN/A
2:00 pm68 °FScattered clouds.12 mph43%30.24 "HgN/A
1:00 pm68 °FScattered clouds.10 mph40%30.24 "HgN/A
12:00 pm70 °FPassing clouds.8 mph40%30.24 "HgN/A
11:00 am68 °FPassing clouds.7 mph40%30.27 "HgN/A
10:00 am66 °FPassing clouds.8 mph43%30.30 "HgN/A
9:00 am64 °FPassing clouds.7 mph40%30.30 "HgN/A
8:00 am61 °FPassing clouds.5 mph48%30.30 "HgN/A
7:00 am54 °FSunny.3 mph63%30.30 "Hg10 mi
6:00 am54 °FSunny.No wind58%30.27 "Hg10 mi
5:00 am52 °FClear.No wind62%30.27 "Hg10 mi
4:00 am52 °FClear.3 mph67%30.27 "Hg10 mi
3:00 am54 °FClear.5 mph63%30.27 "Hg10 mi
Weather by CustomWeather, © 2017

See weather overviewHow to use our weather pages